Szolnok, Hungary

2:10 AM CET on March 24, 2017 (GMT +0100)
Szolnok

Weather History for LHSN - May, 2013

Change the Weather History Date:

Tuesday, May 21, 2013

  Actual Average (LHBP) Record (LHBP)
Temperature  
Mean Temperature 63 °F -  
Max Temperature 71 °F 70 °F 84 °F (2007)
Min Temperature 55 °F 48 °F 39 °F (2005)
Degree Days  
Heating Degree Days 2    
Growing Degree Days 13 (Base 50)    
Moisture  
Dew Point 47 °F    
Average Humidity 57    
Maximum Humidity 77    
Minimum Humidity 38    
Precipitation  
Precipitation 0.00 in - - ()
Sea Level Pressure  
Sea Level Pressure 29.92 in    
Wind  
Wind Speed 8 mph ()    
Max Wind Speed 18 mph    
Max Gust Speed 29 mph    
Visibility 6.1 miles    
Events Rain    
Averages and records for this station are not official NWS values.
T = Trace of Precipitation, MM = Missing Value Source: Averaged Metar Reports

Daily Weather History Graph

Daily Weather History Graph

Search for Another Location

Airport or City:

Trip Planner

Search our weather history database for the weather conditions in past years. The results will help you decide how hot, cold, wet, or windy it might be!

Date:

Astronomy

May. 21, 2013 Rise Set
Actual Time 4:56 AM CEST 8:15 PM CEST
Civil Twilight 4:19 AM CEST 8:52 PM CEST
Nautical Twilight 3:30 AM CEST 9:41 PM CEST
Astronomical Twilight 2:29 AM CEST 10:44 PM CEST
Moon 3:53 PM CEST (5/21) 2:31 AM CEST (5/21)
Length of Visible Light 16h 33m
Length of Day
15h 18m
Waxing Gibbous, 81% of the Moon is Illuminated
May 21
Waxing Gibbous
May 25
Full
May 31
Last Quarter
Jun 8
New
Jun 16
First Quarter

Hourly Weather History & Observations

Time (CEST) Temp. Dew Point Humidity Pressure Visibility Wind Dir Wind Speed Gust Speed Precip Events Conditions
12:15 AM 59.0 °F 46.4 °F 63% 29.95 in - SSW 6.7 mph - N/A   Clear
12:45 AM 59.0 °F 46.4 °F 63% 29.95 in - SSW 4.5 mph - N/A   Clear
1:15 AM 57.2 °F 46.4 °F 67% 29.95 in - Calm Calm - N/A   Clear
1:45 AM 57.2 °F 48.2 °F 72% 29.95 in - SSW 2.2 mph - N/A   Clear
2:15 AM 57.2 °F 48.2 °F 72% 29.95 in - SW 4.5 mph - N/A   Clear
2:45 AM 55.4 °F 48.2 °F 77% 29.95 in - SW 6.7 mph - N/A   Clear
3:15 AM 55.4 °F 48.2 °F 77% 29.95 in - SW 6.7 mph - N/A   Clear
3:45 AM - - N/A% - 3.1 mi SW 6.7 mph - N/A Rain Rain Showers
4:15 AM 55.4 °F 48.2 °F 77% 29.95 in - SW 6.7 mph - N/A   Clear
4:45 AM 55.4 °F 48.2 °F 77% 29.95 in - SW 6.7 mph - N/A   Clear
5:15 AM 55.4 °F 48.2 °F 77% 29.95 in - SW 6.7 mph - N/A   Clear
5:45 AM 55.4 °F 48.2 °F 77% 29.98 in - SW 6.7 mph - N/A   Clear
6:15 AM 55.4 °F 48.2 °F 77% 29.98 in - SSW 8.9 mph - N/A   Clear
6:45 AM - - N/A% - - SW 8.9 mph - N/A   Clear
7:15 AM 59.0 °F 48.2 °F 67% 29.98 in - SSW 11.2 mph - N/A   Clear
7:45 AM 59.0 °F 46.4 °F 63% 29.98 in - SSW 8.9 mph - N/A   Clear
8:15 AM 57.2 °F 48.2 °F 72% 29.98 in - South 6.7 mph - N/A   Clear
8:45 AM 60.8 °F 48.2 °F 63% 29.98 in - SSW 8.9 mph - N/A   Clear
9:15 AM 62.6 °F 50.0 °F 63% 29.98 in 6.2 mi SW 8.9 mph - N/A   Partly Cloudy
9:45 AM - - N/A% - 6.2 mi SW 8.9 mph - N/A   Scattered Clouds
10:15 AM 66.2 °F 44.6 °F 46% 29.95 in 6.2 mi SW 11.2 mph - N/A   Partly Cloudy
10:45 AM 66.2 °F 46.4 °F 49% 29.95 in 6.2 mi SSW 11.2 mph - N/A   Partly Cloudy
11:15 AM 68.0 °F 44.6 °F 43% 29.95 in 6.2 mi SW 15.7 mph - N/A   Partly Cloudy
11:45 AM 68.0 °F 46.4 °F 46% 29.95 in 6.2 mi SW 13.4 mph - N/A   Partly Cloudy
12:15 PM 68.0 °F 44.6 °F 43% 29.95 in 6.2 mi SW 13.4 mph - N/A   Scattered Clouds
12:45 PM - - N/A% - 6.2 mi SW 11.2 mph - N/A   Scattered Clouds
1:15 PM 69.8 °F 44.6 °F 40% 29.92 in 6.2 mi WSW 13.4 mph - N/A   Scattered Clouds
1:28 PM 69.8 °F 44.6 °F 40% 29.92 in 6.2 mi SW 15.7 mph 26.8 mph N/A   Scattered Clouds
1:45 PM 69.8 °F 42.8 °F 38% 29.92 in 6.2 mi SW 15.7 mph 26.8 mph N/A   Scattered Clouds
2:15 PM 69.8 °F 44.6 °F 40% 29.92 in 6.2 mi SW 17.9 mph 29.1 mph N/A   Scattered Clouds
2:45 PM 71.6 °F 44.6 °F 38% 29.89 in 6.2 mi SW 17.9 mph 29.1 mph N/A   Scattered Clouds
3:15 PM 71.6 °F 44.6 °F 38% 29.89 in 6.2 mi SW 17.9 mph - N/A   Scattered Clouds
3:45 PM - - N/A% - 6.2 mi SW 11.2 mph - N/A   Clear
4:15 PM 69.8 °F 44.6 °F 40% 29.89 in 6.2 mi WSW 15.7 mph - N/A   Mostly Cloudy
4:45 PM 69.8 °F 42.8 °F 38% 29.89 in 6.2 mi SW 15.7 mph - N/A   Mostly Cloudy
5:15 PM 69.8 °F 44.6 °F 40% 29.86 in 6.2 mi SW 15.7 mph - N/A   Mostly Cloudy
5:45 PM 68.0 °F 42.8 °F 40% 29.86 in 6.2 mi SW 15.7 mph - N/A   Mostly Cloudy
6:15 PM 68.0 °F 44.6 °F 43% 29.86 in 6.2 mi SW 11.2 mph - N/A   Mostly Cloudy
6:45 PM 68.0 °F 44.6 °F 43% 29.86 in 6.2 mi SW 8.9 mph - N/A   Mostly Cloudy
7:15 PM 66.2 °F 46.4 °F 49% 29.86 in - SW 8.9 mph - N/A   Clear
7:45 PM 64.4 °F 46.4 °F 52% 29.86 in - SW 8.9 mph - N/A   Clear
8:15 PM 62.6 °F 48.2 °F 59% 29.86 in - SSW 6.7 mph - N/A   Clear
8:45 PM 62.6 °F 48.2 °F 59% 29.86 in - SSW 4.5 mph - N/A   Clear
9:15 PM 62.6 °F 46.4 °F 55% 29.86 in - SW 4.5 mph - N/A   Clear
9:45 PM - - N/A% - 6.2 mi SSW 4.5 mph - N/A   Overcast
10:15 PM 62.6 °F 48.2 °F 59% 29.86 in - SW 4.5 mph - N/A   Clear
10:45 PM 60.8 °F 48.2 °F 63% 29.86 in - SSW 4.5 mph - N/A   Clear
11:15 PM 60.8 °F 48.2 °F 63% 29.83 in - South 2.2 mph - N/A   Clear
11:45 PM 59.0 °F 51.8 °F 77% 29.83 in - South 2.2 mph - N/A   Clear